Flag for Namibia Weather past 2 weeks in Swakopmund, Namibia

Now
70 °F

Clear.


Feels Like: 70 °F
Forecast: 69 / 79 °F
Wind: 10 mph from Southwest

Location: Walvis Bay


UV Index: 5 (Moderate)

Visibility: 10 mi


Pressure: 29.89 "Hg

Humidity: 60%

Dew point: 55 °F

Location of SwakopmundLocation

Historic Weather in Swakopmund

°F

Swakopmund temperature yesterday

Maximum temperature yesterday: 84 °F (at 12:00 PM)
Minimum temperature yesterday: 63 °F (at 6:00 AM)
Average temperature yesterday: 71 °F

Past Weeks' High & Low Weather Summary

 TemperatureHumidityPressure
High100 °F (Apr 10, 3:00 PM)94% (Apr 2, 6:00 AM)30.04 "Hg (Apr 2, 6:00 AM)
Low50 °F (Apr 2, 4:00 AM)10% (Apr 10, 3:00 PM)29.86 "Hg (Apr 5, 7:00 PM)
Average74 °F54%29.96 "Hg
* Reported Apr 1 6:00 PM — Apr 16 5:00 PM, Swakopmund, Weather by CustomWeather, © 2014

Note: Actual official high and low records may vary slightly from our data, if they occured in-between our weather recording intervals... More about our weather records

Advertising

Historic Weather Conditions — Data for Previous 24 hours

 ConditionsComfort  
Time TempWeatherWind HumidityBarometerVisibility
5:00 PM
Apr 16
73 °FMild.13 mph53%29.89 "HgN/A
4:00 PM77 °FSandstorm.12 mph47%29.89 "Hg2 mi
3:00 PM79 °FSandstorm.13 mph42%29.92 "Hg2 mi
2:00 PM82 °FPassing clouds.14 mph35%29.92 "HgN/A
1:00 PM82 °FPassing clouds.8 mph35%29.92 "HgN/A
12:00 PM81 °FSunny.6 mph37%29.95 "Hg10 mi
11:00 AM75 °FPassing clouds.6 mph47%29.98 "HgN/A
10:00 AM70 °FMild.3 mph60%30.01 "HgN/A
9:00 AM64 °FPassing clouds.5 mph73%30.01 "HgN/A
8:00 AM61 °FPassing clouds.8 mph77%29.98 "HgN/A
7:00 AM57 °FPassing clouds.5 mph88%29.98 "HgN/A
6:00 AM57 °FPassing clouds.5 mph82%29.95 "HgN/A
5:00 AM59 °FCool.3 mph77%29.92 "HgN/A
4:00 AM59 °FCool.5 mph82%29.92 "HgN/A
3:00 AM59 °FCool.3 mph77%29.92 "HgN/A
2:00 AM59 °FCool.5 mph77%29.92 "HgN/A
12:00 AM61 °FCool.3 mph72%29.95 "HgN/A
11:00 PM
Apr 15
63 °FMild.3 mph68%29.95 "HgN/A
10:00 PM63 °FMild.5 mph73%29.95 "HgN/A
9:00 PM63 °FMild.3 mph73%29.95 "HgN/A
8:00 PM64 °FMild.5 mph68%29.95 "HgN/A
7:00 PM66 °FDuststorm.7 mph64%29.92 "Hg3 mi
Weather by CustomWeather, © 2014

See weather overview